Location: Caltech
(34.1382°N, 118.1253°W)
Time: 15:28:30
(UTC-07:00)

Oscar 10/S400 - Visible Passes

Search period start: 04 July 2015 00:00
Search period end: 14 July 2015 00:00
Orbit: 3857 x 35590 km, 25.9° (Epoch: 04 July)

Date Brightness Start Highest point End Pass type
(mag) Time Alt. Az. Time Alt. Az. Time Alt. Az.
04 Jul ? 00:34:58 10° W 00:53:37 57° SSW 01:20:05 10° ESE visible
04 Jul ? 23:48:43 10° W 00:09:16 61° SSW 00:32:17 10° ESE visible
05 Jul ? 23:01:27 10° W 23:24:58 65° S 23:45:36 10° ESE visible
06 Jul ? 22:12:37 10° W 22:40:38 68° S 22:59:41 10° ESE visible
07 Jul ? 21:21:12 10° W 21:56:13 70° S 22:14:22 10° ESE visible
08 Jul ? 20:25:22 10° WSW 21:11:36 70° S 21:29:28 10° E visible
09 Jul ? 19:20:27 10° WSW 20:26:44 69° S 20:44:53 10° E visible
